Location: Colle Santa Colomba
(42.0333°N, 12.5667°E)
Time: 03:42:59
(UTC+00:00)

IRAS Rocket - Pass Details

Date: 25 October 2021
Orbit: 847 x 878 km, 100.1° (Epoch: 28 November)

Event Time Altitude Azimuth Distance (km) Brightness Sun altitude
Rises 17:55:17 0° 14° (NNE) 3,449 7.2 -19.6°
Reaches altitude 10° 17:57:40 10° 14° (NNE) 2,503 6.5 -20.1°
Maximum altitude 18:03:14 85° 288° (WNW) 863 4.2 -21.1°
Drops below altitude 10° 18:08:43 10° 200° (SSW) 2,469 6.8 -22.1°
Sets 18:11:03 0° 199° (SSW) 3,398 7.5 -22.5°
